Location: Palomar Mountain Lodge
(33.3110°N, 116.8495°W)
Time: 12:42:15
(UTC-08:00)

USA 215 - Pass Details

Date: 14 June 2018
Orbit: 1100 x 1107 km, 123.0° (Epoch: 11 November)

Event Time Altitude Azimuth Distance (km) Brightness Sun altitude
Exits shadow 21:18:10 10° 170° (S) 2,917 5.0 -14.5°
Maximum altitude 21:23:57 36° 234° (SW) 1,672 4.3 -15.4°
Drops below altitude 10° 21:29:50 10° 299° (WNW) 2,954 6.8 -16.3°
Sets 21:32:34 0° 308° (NW) 3,915 7.9 -16.7°
